FLOCK 2P-2

Last updated on Wed Feb 14 2018 16:19:49 GMT+0000 (Coordinated Universal Time)

1 41609U 16040L 18044.83078777 .00001938 00000-0 83075-4 0 9993 2 41609 97.4293 110.4614 0009004 312.3905 47.6569 15.23944331 91405
UTC large
Height (km)
Speed (km/s)
/
Latitude / Longitude
Inclination (degrees)
Orbital Period (minutes)
Azimuth
Elevation
Range (km)
Doppler Factor

Next 0 passes for location: London (51.5072 / 0.1276)

Sorry there are no passes over London.
FLOCK 2P-2